Wind_Speed
5 5 5 5 5 5 5 5 5 5 5 5 5 5 5 5 5 6 6 6 6 7 7 7 7 8 8 8 8 8 8 8 8 8 9 9 10 10 10 10 11 12 12
7 6 6 6 6 5 5 5 5 6 6 6 6 6 6 6 6 6 7 7 7 8 8 8 8 8 9 9 9 9 9 9 9 9 10 10 11 11 11 12 12 12 13
8 7 6 7 7 6 6 6 6 6 7 7 7 7 7 7 7 8 8 8 9 9 9 9 10 10 10 10 10 10 10 10 10 10 11 11 11 12 12 13 13 13 13
9 8 7 7 6 7 7 7 7 8 8 8 8 8 8 8 8 9 9 9 10 10 11 11 12 11 11 11 11 11 11 11 11 12 12 12 12 13 13 14 14 14 14
10 9 8 8 8 8 9 9 9 9 9 9 9 9 10 9 10 10 10 10 11 11 12 12 12 13 13 13 12 12 12 12 12 13 13 14 14 14 14 14 15 15 15
11 11 10 9 9 9 9 10 10 11 10 10 10 11 11 10 11 11 12 12 12 12 13 13 13 14 14 14 13 13 13 14 14 14 14 15 15 15 15 15 16 16 16
12 11 10 9 10 10 10 11 12 12 12 12 12 12 12 12 12 12 13 13 13 14 14 14 14 14 15 15 14 14 15 15 15 15 16 16 16 16 17 17 17 17 17
12 12 11 11 11 11 11 12 12 13 13 13 13 14 13 13 13 14 14 14 14 15 15 16 16 16 15 16 16 16 16 17 16 16 16 16 16 17 17 18 18 18 18
13 13 12 12 12 12 13 13 13 13 14 14 15 15 14 14 14 15 16 15 16 16 16 17 17 17 17 17 17 17 17 17 17 17 17 17 17 18 18 19 18 18 19
14 14 14 14 12 13 14 14 14 14 14 15 15 15 15 15 16 16 16 17 18 18 18 18 18 18 18 18 17 17 18 18 19 18 19 19 18 18 19 19 19 19 20
13 14 14 13 13 14 15 15 15 15 15 15 15 16 16 16 17 17 17 19 19 19 19 19 19 19 19 18 18 19 19 19 19 19 20 19 19 19 19 20 20 20 21
14 14 14 15 15 15 15 15 16 16 16 16 17 17 17 17 18 19 19 19 20 20 20 20 20 20 19 19 19 19 20 20 19 19 20 20 20 20 20 20 21 21 22
15 15 15 15 16 16 17 17 17 17 18 18 18 18 18 19 20 21 21 21 21 22 22 22 21 21 20 20 20 20 20 20 20 20 20 20 21 21 22 21 21 22 23
17 16 16 17 17 18 18 19 19 19 19 20 20 20 20 20 21 22 23 23 22 23 23 22 22 22 22 22 21 21 21 22 21 22 22 22 22 23 23 23 23 22 23
18 18 18 18 18 19 19 20 20 20 21 21 21 21 22 22 22 23 23 23 23 23 23 23 23 23 23 23 23 23 22 23 23 23 23 23 24 24 24 24 24 24 24
20 20 20 19 19 20 21 22 23 22 22 23 22 22 23 23 24 24 24 23 24 24 24 24 24 25 25 25 25 25 24 24 24 24 24 24 25 25 25 25 25 25 26
21 21 21 21 21 22 23 24 24 24 25 24 24 24 24 24 25 25 25 25 25 25 25 26 26 26 25 26 26 26 26 25 25 25 25 25 26 26 26 26 26 26 26
23 23 23 22 23 23 24 25 25 25 26 26 25 25 25 25 27 27 27 27 27 26 26 27 27 27 27 26 26 27 27 26 26 26 27 26 26 27 27 27 27 28 27
23 24 23 23 23 23 24 24 24 25 26 26 26 26 26 26 27 28 28 27 27 27 27 27 27 27 26 26 27 27 27 28 28 28 28 28 28 28 28 28 29 29 29
23 22 23 23 23 23 23 23 23 25 26 26 25 26 27 27 27 28 27 27 27 27 27 27 27 27 28 28 28 28 28 29 29 29 29 29 30 30 30 30 29 29 29
22 22 23 22 23 23 23 24 24 25 25 26 26 26 27 27 28 28 28 28 28 28 27 27 27 28 28 29 30 30 30 30 31 31 31 31 31 31 31 31 30 30 30
22 22 21 22 22 22 22 23 23 24 25 26 26 26 27 27 28 28 28 28 28 27 27 27 28 28 28 29 30 31 31 31 31 32 32 32 32 32 31 31 31 31 31
20 21 22 22 22 22 22 22 22 23 24 25 26 26 26 27 27 27 26 26 26 26 26 27 28 29 30 30 31 32 32 31 32 32 32 32 33 32 32 32 32 32 32
18 19 20 20 21 21 22 22 22 23 24 24 25 25 25 25 26 26 26 26 26 26 27 27 29 30 30 30 30 30 31 31 31 31 31 32 32 33 33 33 33 33 33
18 18 19 20 20 20 20 21 22 23 24 24 25 25 26 25 25 26 26 27 27 27 28 29 29 29 29 29 29 30 30 31 31 31 30 31 32 33 34 33 33 33 34
17 17 18 18 19 19 20 21 22 23 24 24 24 26 26 26 26 26 26 27 27 27 28 28 28 28 28 29 29 30 31 31 32 32 32 31 32 33 34 34 34 34 34
Wind_Direction
241 240 240 242 247 258 260 267 272 273 280 288 296 305 310 313 320 326 327 327 327 328 327 323 319 314 313 310 306 299 295 291 286 279 273 270 269 267 263 259 255 254 252
251 251 247 245 253 260 266 270 268 270 277 283 291 297 302 303 308 314 316 317 318 317 314 311 309 305 305 303 299 294 291 287 283 277 273 270 269 267 263 261 257 254 254
256 257 256 258 255 259 267 274 275 275 279 285 290 294 298 299 301 306 309 309 309 307 306 305 303 300 299 298 295 291 289 284 281 278 275 272 269 267 264 261 259 257 255
258 258 260 262 263 266 270 277 281 281 283 287 290 292 295 298 300 302 303 305 306 305 304 302 299 296 295 294 291 289 287 284 280 278 277 275 272 268 264 261 261 259 256
258 256 258 260 268 270 272 277 279 281 283 285 286 289 292 296 298 299 300 301 304 303 301 300 296 294 292 291 289 288 286 282 279 277 276 275 273 270 265 262 260 259 257
256 254 257 258 263 269 276 280 278 280 282 284 286 290 291 293 295 297 296 297 299 300 299 299 296 295 293 293 290 287 287 285 281 277 275 274 273 271 267 264 262 260 258
259 259 261 263 264 270 277 280 280 282 283 284 287 288 289 291 291 293 294 294 294 295 296 297 296 294 294 292 291 287 285 285 282 278 274 273 272 271 268 266 263 261 258
262 263 264 266 267 270 275 280 281 283 285 287 287 287 288 290 292 293 292 292 292 293 295 296 295 294 293 291 288 286 284 283 283 279 276 274 273 271 269 266 263 260 258
264 265 269 268 267 271 276 280 282 282 286 287 288 288 287 289 291 293 294 293 293 294 295 296 294 293 293 292 288 286 285 283 282 282 278 274 272 271 269 267 263 260 257
264 267 270 268 265 271 275 278 281 284 287 288 288 287 287 289 291 292 293 294 294 293 293 293 293 293 292 291 288 285 284 283 281 279 279 277 274 272 272 268 264 261 258
265 264 265 265 270 274 277 280 282 284 287 285 287 286 288 289 289 292 293 295 294 293 291 292 292 292 290 289 288 287 285 284 282 279 278 277 274 273 272 268 265 263 259
262 262 269 268 270 273 277 280 282 283 287 287 287 286 288 290 290 292 294 295 295 294 291 290 290 290 290 290 288 288 287 285 283 282 279 277 274 273 272 270 266 264 261
257 261 268 273 272 274 275 279 280 281 285 285 285 286 289 290 290 291 293 293 294 294 292 289 289 289 290 291 290 288 286 284 284 282 280 277 274 273 272 271 269 267 263
258 260 264 270 275 275 273 275 278 281 281 281 284 284 286 289 291 292 291 293 294 292 292 288 287 288 288 288 288 287 286 284 283 281 280 279 276 274 273 271 269 268 266
259 261 265 269 273 274 273 274 277 280 280 281 283 284 286 288 289 291 291 290 292 291 290 290 286 286 287 286 285 284 283 283 281 280 279 279 278 275 273 271 269 267 266
262 262 265 268 272 276 277 278 277 277 279 280 281 282 284 286 287 288 289 289 290 290 289 288 285 285 286 285 283 282 282 281 280 279 279 279 279 277 274 273 270 268 266
262 263 266 270 273 276 278 280 279 279 279 280 281 282 284 285 286 287 288 287 288 288 287 286 284 284 283 283 283 282 281 281 280 279 279 279 278 276 274 273 272 270 268
262 265 269 271 274 276 278 280 280 281 280 281 280 281 282 284 285 285 286 287 288 288 287 286 285 283 283 283 282 282 281 280 280 279 279 278 278 277 274 272 271 270 269
263 266 268 271 274 277 279 281 281 281 282 283 282 282 283 286 288 286 287 289 288 288 286 286 287 285 284 284 283 283 282 281 280 279 278 277 277 276 274 272 271 269 268
264 266 268 269 274 279 280 282 284 283 283 283 282 283 285 286 287 286 287 288 288 288 287 287 287 286 284 283 283 284 284 283 282 280 278 277 276 274 273 272 270 268 267
267 269 271 273 276 278 279 282 283 282 281 281 283 285 286 286 287 289 290 289 289 289 289 289 289 288 285 284 283 283 285 284 282 282 280 278 276 273 272 272 269 268 266
268 271 274 275 277 278 279 282 281 281 283 285 284 285 287 287 288 290 291 292 289 289 289 290 289 289 287 286 285 285 285 285 282 282 281 279 276 274 272 271 270 267 266
271 274 275 277 278 278 279 280 282 281 283 285 285 286 287 288 289 290 292 293 292 290 290 291 291 290 289 288 287 286 286 287 285 282 281 279 277 274 272 270 269 269 267
273 276 277 280 282 281 280 281 284 285 285 285 286 287 288 290 291 291 292 292 292 292 292 292 291 291 290 289 288 287 287 287 287 285 282 279 277 275 273 271 269 269 268
275 277 279 281 284 285 284 285 287 288 288 287 288 289 290 291 291 292 293 292 292 293 294 293 291 291 290 289 288 288 287 286 286 285 283 281 278 275 275 274 273 271 269
279 282 282 283 285 286 288 287 287 288 288 289 291 290 291 292 292 292 293 295 295 295 295 293 292 292 292 291 289 289 288 286 285 283 283 281 279 276 274 274 274 273 270
Height
5892 5892 5892 5892 5892 5892 5892 5892 5892 5892 5891 5890 5890 5889 5888 5888 5887 5886 5885 5885 5884 5883 5883 5882 5882 5881 5881 5880 5880 5879 5879 5878 5878 5877 5877 5877 5877 5876 5876 5876 5876 5877 5877
5891 5890 5890 5891 5891 5891 5891 5890 5890 5890 5889 5889 5888 5887 5887 5886 5885 5885 5884 5883 5882 5882 5881 5880 5880 5879 5879 5878 5878 5877 5876 5876 5875 5875 5875 5874 5874 5874 5874 5874 5874 5874 5875
5889 5889 5889 5889 5889 5889 5889 5889 5889 5888 5888 5887 5886 5885 5885 5884 5883 5883 5882 5881 5881 5880 5879 5878 5878 5877 5876 5876 5875 5875 5874 5874 5873 5872 5872 5871 5871 5871 5872 5872 5872 5872 5872
5887 5887 5887 5887 5887 5887 5887 5887 5887 5886 5886 5885 5884 5883 5883 5882 5881 5881 5880 5880 5879 5878 5877 5876 5875 5875 5874 5873 5873 5872 5872 5871 5871 5870 5869 5869 5868 5868 5868 5869 5869 5869 5869
5885 5885 5885 5885 5885 5885 5885 5885 5885 5884 5884 5883 5882 5882 5881 5880 5879 5879 5878 5878 5877 5876 5875 5874 5873 5872 5871 5870 5870 5869 5869 5868 5867 5867 5866 5866 5865 5865 5865 5866 5866 5866 5866
5883 5882 5883 5882 5883 5883 5883 5883 5883 5882 5882 5881 5880 5879 5878 5878 5877 5877 5876 5875 5874 5873 5872 5871 5870 5869 5869 5868 5867 5866 5866 5865 5864 5864 5863 5863 5862 5862 5862 5862 5863 5863 5863
5881 5880 5880 5880 5881 5880 5880 5880 5880 5880 5879 5878 5877 5876 5876 5875 5875 5874 5873 5872 5871 5870 5869 5868 5867 5866 5865 5865 5864 5863 5862 5862 5861 5860 5860 5859 5859 5859 5859 5859 5859 5859 5859
5878 5878 5878 5878 5878 5878 5878 5878 5877 5877 5876 5875 5874 5874 5873 5873 5872 5871 5870 5869 5868 5867 5866 5865 5864 5863 5862 5861 5860 5859 5859 5858 5857 5856 5856 5855 5856 5855 5855 5855 5855 5855 5855
5875 5875 5875 5875 5875 5875 5875 5875 5874 5874 5873 5872 5871 5871 5870 5869 5869 5868 5866 5865 5864 5863 5862 5861 5860 5859 5858 5857 5856 5855 5855 5854 5853 5852 5852 5851 5851 5851 5851 5851 5851 5851 5851
5873 5873 5873 5872 5872 5872 5872 5872 5871 5870 5870 5869 5868 5868 5867 5866 5865 5864 5863 5862 5860 5859 5858 5857 5856 5855 5854 5853 5853 5852 5851 5850 5849 5848 5848 5847 5847 5847 5847 5847 5847 5847 5847
5870 5870 5870 5869 5869 5869 5869 5868 5868 5867 5866 5865 5864 5864 5863 5862 5861 5860 5859 5858 5857 5856 5854 5853 5852 5851 5850 5849 5848 5847 5846 5845 5844 5844 5843 5843 5842 5842 5842 5842 5842 5842 5842
5867 5867 5867 5866 5866 5866 5865 5865 5864 5864 5863 5861 5861 5860 5859 5858 5858 5856 5856 5854 5853 5852 5851 5849 5848 5847 5846 5845 5844 5842 5842 5841 5840 5839 5838 5838 5837 5837 5837 5837 5837 5837 5837
5864 5863 5863 5863 5863 5863 5862 5862 5861 5860 5859 5858 5857 5856 5855 5854 5853 5852 5851 5850 5849 5847 5846 5845 5844 5842 5841 5840 5839 5838 5837 5836 5835 5834 5834 5833 5833 5832 5832 5832 5832 5832 5832
5860 5860 5860 5860 5860 5859 5859 5858 5857 5856 5855 5854 5853 5852 5851 5850 5849 5848 5847 5846 5844 5843 5842 5840 5839 5838 5837 5835 5834 5833 5832 5831 5830 5829 5829 5828 5827 5827 5826 5826 5826 5826 5826
5856 5856 5857 5856 5856 5855 5855 5854 5853 5852 5851 5850 5849 5848 5847 5846 5845 5843 5842 5841 5839 5838 5837 5835 5834 5833 5832 5830 5829 5828 5827 5826 5825 5824 5823 5823 5822 5821 5820 5820 5820 5820 5820
5852 5852 5852 5852 5852 5851 5850 5850 5849 5848 5847 5845 5844 5843 5842 5841 5840 5838 5837 5836 5834 5833 5831 5830 5829 5827 5826 5825 5824 5823 5822 5820 5819 5818 5817 5817 5816 5815 5814 5814 5813 5813 5813
5848 5848 5848 5847 5847 5846 5846 5845 5843 5843 5841 5840 5839 5838 5837 5836 5834 5833 5832 5830 5829 5827 5825 5824 5823 5822 5820 5819 5818 5817 5815 5814 5813 5812 5811 5810 5809 5809 5808 5807 5807 5807 5806
5842 5843 5843 5842 5842 5841 5840 5839 5838 5837 5836 5835 5834 5832 5831 5830 5828 5827 5826 5824 5823 5821 5819 5818 5816 5815 5814 5812 5811 5810 5809 5808 5806 5805 5804 5803 5803 5802 5801 5801 5800 5800 5799
5837 5838 5838 5837 5836 5835 5835 5833 5832 5832 5830 5829 5828 5827 5825 5824 5822 5821 5820 5818 5816 5815 5813 5811 5810 5809 5807 5806 5804 5803 5801 5800 5799 5798 5797 5796 5795 5794 5794 5793 5793 5792 5792
5832 5832 5832 5832 5831 5830 5829 5828 5827 5826 5824 5823 5822 5821 5819 5818 5816 5815 5814 5812 5810 5808 5807 5805 5804 5802 5800 5799 5798 5796 5794 5793 5792 5791 5789 5788 5787 5786 5786 5785 5785 5785 5784
5828 5827 5827 5826 5826 5825 5824 5823 5822 5820 5819 5818 5816 5815 5813 5812 5810 5809 5807 5806 5804 5802 5800 5799 5797 5795 5794 5792 5790 5789 5787 5785 5784 5782 5781 5780 5779 5778 5778 5777 5777 5776 5776
5823 5822 5822 5821 5821 5819 5818 5818 5817 5815 5813 5812 5810 5809 5807 5806 5804 5803 5801 5799 5797 5795 5794 5792 5790 5789 5787 5785 5783 5781 5779 5778 5776 5774 5772 5771 5770 5769 5769 5768 5768 5768 5768
5818 5818 5817 5817 5816 5815 5814 5813 5811 5810 5808 5806 5805 5803 5801 5799 5798 5796 5794 5793 5790 5788 5787 5785 5783 5781 5779 5777 5775 5773 5771 5769 5767 5765 5763 5762 5760 5760 5759 5759 5759 5759 5758
5814 5813 5813 5812 5811 5810 5808 5807 5805 5804 5803 5801 5799 5797 5795 5793 5791 5789 5788 5786 5784 5782 5780 5778 5776 5774 5772 5770 5767 5765 5763 5760 5758 5757 5755 5753 5752 5750 5749 5749 5749 5749 5749
5810 5809 5807 5806 5805 5804 5803 5802 5800 5799 5797 5795 5793 5791 5789 5787 5785 5783 5781 5779 5777 5775 5773 5771 5769 5766 5764 5762 5760 5757 5755 5752 5750 5748 5747 5745 5743 5742 5740 5739 5739 5738 5738
5805 5804 5803 5802 5801 5799 5798 5797 5795 5794 5791 5790 5788 5786 5784 5781 5779 5777 5775 5773 5771 5769 5766 5763 5761 5759 5756 5754 5751 5749 5746 5744 5741 5739 5737 5736 5734 5733 5731 5730 5729 5728 5728